Terminal Aerodrome Forecast
Issued by NWS

Home | Current Version | Previous Version | Text Only | Print | Product List | Glossary On
Versions: 1 2 3 4 5 6 7 8 9 10 11 12 13
000
FTUS41 KCAR 302300
TAFBHB
TAF
KBHB 302332Z 3100/3124 20011KT P6SM SCT100
     FM310900 21011KT 2SM BR BKN005
     FM311300 21011KT P6SM BKN015
     FM312000 22012KT 5SM -SHRA BR OVC020
      AMD LTD TO CLD VIS AND WIND=

USA.gov is the U.S. government's official web portal to all federal, state and local government web resources and services.